Showing default

UHETSAT, 58466

Orbit data source: Space-Track

UHETSAT, 58466 is a payload satellite owned by SITAEL SpA (IT) in SSO that was launched on Fri, 01 Dec 2023 UTC via an FALCON 9 launch vehicle from the Air Force Western Test Range (AFWTR). Payload-class satellites include a variety of spacecraft equipped with specific instruments for various scientific and technological missions. These include communications satellites like Starlink; space stations such as the ISS; scientific satellites like the Hubble; Earth observation satellites from companies like Planet Labs, Umbra, and HawkEye 360; GPS; miniature CubeSats for education and research; and military/defense satellites.

Loading next visibility...
Identifier
58466, 2023-185E
Orbit
SSO
Last TLE update
9 hours ago
Origin
Manufacturer
SITAEL SpA
Mission
Operational Commercial Technology
Bus & Motor
S-50, Unknown motor
Mass
70 kg wet, 70 kg dry
Launch date (UTC)
2023-12-01 (1 year ago)
Launch vehicle
FALCON 9
Launch site
Air Force Western Test Range (AFWTR)
Object type
Payload
Rocket body
Debris
Shape & HBR
Box, 0.7 m
Radar Cross Section
0.360 m², Medium (>0.1 m² and < 1m²)

Expand to show TLE details & history

TLE from 9 hours ago
0 UHETSAT
1 58466U 23185E   25131.20583113  .00007268  00000-0  29601-3 0  9997
2 58466  97.3975 197.9248 0013253 296.4708  63.5169 15.24707397 79912
Epoch: 2025-05-11T04:56Z
Definitive object data (Epoch: 2025-05-11T04:56:23.809Z)
Latitude
-0.00011°
Longitude
-105.41099°
Altitude
490.71 km
Speed
7.622 km/s
True Right ascension
13h 11m 41s
True Declination
0° 00' 00"
Sunlit
Object was in full shadow at TLE epoch
Visualization TLE readout
Latitude
-52.08165°
Longitude
65.41413°
Altitude
507.738 km
Speed
7.611 km/s
Apparent Right ascension
06h 10m 24s
Apparent Declination
-72° 43' 03"
Sunlit
Object is in daylight
Visualization observer readout
Local Sidereal Time
22:07:54
Azimuth
158.079° S
Elevation
-46.783°
Doppler factor
1
Orbital elements
Apogee altitude
497.724 km
Perigee altitude
479.523 km
Semi-major axis
6,866.76 km
Eccentricity
0.0013253
Inclination
97.3975°
RAAN
197.9248°
Arg. of periapsis
296.4708°
True anomaly
63.65293°
Mean anomaly
63.5169°
Eccentric anomaly
63.58491°
Mean motion
3.8143 °/min
BSTAR
0.00029601
Orbital period
94.38 mins
Loading maneuver chart data...
Loading SW <> Apogee altitude chart data...
Loading historical data...
Loading historical data...
Loading historical data...
Loading historical data...
Loading historical data...
Loading historical data...
Loading historical data...

UHETSAT Visibility forecast

Observer location: undefined°, undefined°

Span
Click to sort rows by Start time (UTC) header in descending order
Start Az.
Max El. time (UTC)
Max El. Az.
Max El.
End time (UTC)
End Az.
4 mins2025-05-11 16:32:58.781Z53.341° ENE2025-05-11 16:34:58.781Z95.531° ESE20.81°2025-05-11 16:36:58.781Z137.593° SSE
4 mins2025-05-11 18:06:58.781Z322.245° NNW2025-05-11 18:07:58.781Z301.358° NW19.414°2025-05-11 18:10:58.781Z242.852° WSW
5 mins2025-05-12 04:41:58.781Z185.397° SSW2025-05-12 04:43:58.781Z230.004° WSW38.565°2025-05-12 04:46:58.781Z335.404° NNW
|